{"data":{"norad_id":54750,"epoch":"2026-05-24T22:55:46.384608Z","epoch_age_seconds":72168,"freshness":"FRESH","line1":"1 54750U 22171E   26144.95539797  .00014132  00000+0  44826-3 0  9992","line2":"2 54750  34.9818 331.6958 0006828 281.5873  78.4077 15.31822610191923","mean_motion":15.3182261,"eccentricity":0.0006828,"inclination_deg":34.9818,"raan_deg":331.6958,"arg_perigee_deg":281.5873,"mean_anomaly_deg":78.4077,"bstar":0.00044826,"rev_number":19192,"period_min":94.005662966419,"perigee_km":465.69836190534,"apogee_km":475.05068924466,"semimajor_km":6848.511525575,"source":"CELESTRAK","updated_at":"2026-05-25T13:37:58.732819Z"}}